CAPE
80 243 82 45 29 0 4 161 37 0 26 26 0 78 438 288 316 301 299 1520 1603 1974 2037 1476 1113 974 986 887 939 793 646 581 1039 956 1051 1402 1256 1111 969 1532 1645 1417 1282
236 385 909 344 284 182 0 0 0 59 27 70 18 368 532 724 671 565 381 413 1702 1991 2284 2156 1685 1463 986 977 868 938 1340 1287 1274 1133 1496 1517 1576 1563 1577 1644 1423 1627 1482
187 187 511 498 304 56 490 217 284 746 655 502 394 360 472 617 509 596 399 378 809 1936 2364 2636 2400 2007 1758 1220 1089 1352 1466 1594 1693 1584 1436 1394 1393 1656 1589 1761 1816 1679 1745
7 41 514 345 289 861 395 124 277 976 715 1088 1014 1080 874 716 515 754 565 784 580 664 1393 2415 2004 2013 2146 1922 1791 1749 1458 1395 1612 1795 1806 1397 1171 1186 1324 1428 1421 1733 1732
0 76 282 621 335 169 876 682 1240 1109 906 804 845 780 789 720 645 1087 706 444 328 670 687 798 1150 865 1490 1591 1653 2107 1492 1248 1411 1391 1768 1438 1456 1357 1229 1192 1026 1159 1720
33 155 208 277 575 621 928 1016 1092 1195 1100 1039 1079 1023 838 360 440 972 695 939 224 524 373 667 704 793 291 772 1060 1552 1657 1357 1265 1116 1153 1400 1225 1108 1166 1113 1078 907 1052
158 312 214 347 1078 573 614 807 1023 1678 1429 1172 1219 866 360 105 260 479 432 678 645 772 770 864 1073 765 653 1176 1496 703 1956 1656 1602 1024 896 765 1135 1334 1148 1004 1061 1089 925
93 208 626 775 666 865 859 1274 998 1152 1456 1361 957 566 90 161 0 52 206 149 371 1007 859 726 729 819 888 1032 954 1043 1865 1543 1660 1506 1108 1262 1021 1281 1121 1000 838 1058 808
325 581 798 1105 833 1287 1373 1460 1114 1121 1283 794 827 640 335 203 81 13 0 44 392 1223 1025 943 1027 1197 1174 1041 972 1323 1220 972 1589 1999 1507 1444 1062 917 992 1074 976 904 972
1007 1159 1416 1361 1292 1532 1579 1625 1363 1359 1173 997 1101 1057 717 711 400 328 64 0 0 40 483 205 549 1273 1543 1343 1241 1107 793 545 976 1963 2203 2087 1478 726 759 1111 1091 1131 1116
1560 1426 1616 1542 1488 1402 1491 1637 1508 1493 1460 1540 1297 1124 923 565 437 280 53 5 0 0 201 310 1762 1820 1301 1290 1104 804 121 122 629 1728 2111 1951 1818 1240 998 914 853 999 1216
1686 1373 335 847 1762 1524 1729 1863 1792 1802 1406 1594 1541 1403 1320 945 660 497 322 24 0 34 54 322 1070 923 606 396 979 534 456 183 247 1409 1511 1607 1525 1412 1193 958 1041 727 998
774 655 272 329 912 780 639 1053 1672 1343 1221 1469 1342 1092 1218 1001 745 737 521 102 5 25 61 255 356 868 869 502 360 1173 1208 756 774 1243 1398 1441 1454 975 1009 1408 1401 1403 1339
842 988 1251 286 445 501 406 923 1438 1371 1507 1416 1220 1104 899 612 551 474 422 184 0 13 120 37 23 141 667 722 659 927 1102 1425 1259 1129 1200 1134 1361 1220 909 827 881 797 878
1558 1348 790 782 1233 1575 1485 1434 1200 1060 1012 1001 893 775 629 535 540 471 311 369 150 69 90 128 51 442 535 587 639 1341 1351 1414 1311 1219 1091 1042 1069 1184 1191 1261 1083 902 986
1758 1716 1654 1344 1284 1104 1103 997 988 941 876 735 680 708 446 450 421 404 440 359 403 327 135 145 213 400 430 244 1175 607 770 913 1130 1071 922 865 845 650 652 780 852 823 769
1205 966 901 779 445 297 390 227 200 376 304 301 248 211 231 250 316 273 265 400 426 414 369 334 325 421 433 683 601 431 749 575 526 652 705 810 641 489 545 391 512 713 777
878 924 44 54 29 1 12 11 2 5 14 66 37 78 68 61 67 100 140 183 256 344 481 505 489 385 403 351 401 358 748 678 426 280 209 293 371 329 283 173 330 350 337
30 0 0 0 0 1 10 1 2 1 0 0 0 0 0 0 0 0 0 0 8 41 182 360 458 477 432 482 341 347 231 220 180 167 52 106 69 122 115 155 232 351 226
0 0 0 0 1 1 0 0 2 1 2 1 0 1 1 0 0 0 0 0 0 0 0 5 67 247 294 323 390 327 341 238 172 96 56 50 74 77 40 63 57 42 36
0 0 0 0 0 0 0 0 0 0 1 0 0 0 2 10 7 0 0 0 0 0 0 0 0 0 0 48 79 146 116 84 105 91 87 24 26 66 57 26 23 17 15
0 0 0 0 0 0 0 2 0 0 0 0 0 0 0 0 0 0 0 0 0 0 0 2 3 1 3 0 0 0 1 50 1 9 0 0 2 7 12 3 1 1 5
0 0 0 0 0 0 0 0 0 0 0 0 0 0 0 0 0 0 4 0 0 0 0 0 0 0 0 0 3 0 0 0 1 0 0 0 0 0 0 0 0 0 0
0 0 0 0 0 0 0 0 0 0 0 0 0 0 0 0 0 0 0 0 0 0 4 13 6 14 6 7 3 1 7 0 0 24 28 4 16 11 4 2 0 2 0
0 0 0 0 0 0 0 1 5 0 0 0 0 0 0 0 0 0 0 0 0 10 41 39 33 28 47 29 12 1 0 0 1 47 42 46 33 10 33 29 16 36 17
0 0 0 0 0 0 0 0 0 0 0 0 0 0 0 0 0 0 0 0 0 0 34 48 20 67 73 47 76 39 65 25 64 32 73 50 54 8 0 118 76 52 13
CIN
-41 -38 -62 -67 -44 0 -38 -33 -47 0 -18 -26 0 -13 -26 -18 -12 -45 -10 -75 -80 -50 -23 -37 -60 -53 -30 -18 -2 -1 0 0 0 0 0 0 0 -1 -2 0 0 0 0
-23 -25 -42 -28 -30 -25 0 0 0 -62 -22 -26 -46 -30 -35 -33 -19 -9 -14 -93 -78 -40 -25 -24 -40 -40 -42 -28 -20 -5 0 0 0 0 0 0 0 0 0 0 0 0 0
-16 -23 -81 -99 -93 -36 -20 -19 -23 -23 -49 -75 -33 -24 -17 -62 -48 -37 -99 -114 -92 -41 -27 -15 -12 -23 -28 -14 -6 -1 0 0 0 0 0 0 -3 0 0 0 0 0 0
-15 -28 -104 -37 -67 -19 -7 -154 -31 -40 -49 -50 -27 -22 -18 -16 -89 -40 -125 -73 -109 -65 -33 -2 0 -16 -17 -8 0 0 -1 0 0 0 0 0 0 -1 0 0 0 0 0
0 -36 -18 -48 -13 -5 -26 -56 -36 -54 -60 -66 -66 -43 -27 -53 -60 -90 -132 -30 -169 -107 -79 -17 -2 -5 -2 -2 -9 0 -8 -7 -1 0 0 0 0 0 0 -1 -2 -1 0
-33 -34 -39 -24 -25 -19 -39 -36 -53 -54 -62 -64 -66 -55 -55 -57 -69 -35 -129 -180 -347 -177 -142 -93 -50 -77 -49 -84 -4 0 -4 -1 -7 -1 0 0 0 0 0 -1 -1 -3 -2
-32 -25 -59 -19 -19 -8 -71 -40 -29 -22 -34 -45 -62 -44 -24 -37 -82 -101 -71 -174 -226 -20 -136 -159 -107 -109 -116 -67 0 -35 0 -1 0 -8 -14 -11 0 0 0 -1 -1 -1 -2
-53 -56 -37 -36 -54 -34 -45 -25 -40 -30 -38 -30 -20 -40 -49 -31 0 -22 -106 -7 -155 -62 -164 -171 -106 -118 -37 -84 -84 -41 0 -5 0 0 -10 0 0 0 -2 -1 -3 -1 -3
-50 -133 -40 -33 -44 -34 -25 -16 -28 -13 -25 -48 -40 -20 -20 -29 -48 -19 0 -45 -63 -31 -29 -70 -153 -100 -86 -45 -94 -69 -25 -25 -9 0 -7 -3 -4 -2 -4 -2 -1 -2 -1
-101 -51 -30 -47 -39 -44 -30 -17 -37 -18 -18 -45 -62 -36 -42 -26 -10 -28 -42 0 0 -23 -27 -39 -37 -140 -92 -56 -71 -64 -60 -83 -44 -8 0 0 -4 -22 -4 -1 -1 -1 0
-47 -64 -41 -27 -50 -32 -36 -41 -16 -20 -21 -23 -40 -50 -70 -72 -56 -22 -19 -5 0 0 -100 -54 -78 -30 -29 -64 -46 -31 -60 -249 -24 -30 -8 -5 -3 -4 0 0 -3 -1 0
-45 -18 -26 -19 -30 -22 -33 -30 -12 -18 -22 -25 -39 -31 -22 -28 -43 -26 -17 -6 0 -38 -17 -29 -56 -29 -21 -218 -158 -98 -82 -108 -48 -43 -28 -17 -9 -2 0 0 0 0 0
-132 -163 -302 -25 -40 -15 -53 -26 -32 -25 -33 -19 -22 -29 -21 -26 -23 -6 -2 -6 -18 -18 -46 -25 -69 -129 -114 -18 -42 -150 -146 -22 -20 -76 -47 -19 -12 -21 -12 0 0 0 0
-128 -40 -117 -89 -125 -17 -49 -27 -38 -34 -26 -10 -8 -10 -32 -35 -34 -22 -4 -7 0 -73 -71 -46 -3 -31 -174 -43 -9 -13 -13 -76 -35 -76 -66 -49 -27 -22 -23 -26 -15 -19 -13
-45 -35 -31 -61 -17 -35 -29 -22 -25 -38 -31 -17 -13 0 -17 -13 -16 -9 -3 -14 -26 -67 -100 -69 -92 -31 -32 -39 -75 -48 -22 -25 -20 -72 -70 -73 -69 -44 -26 -15 -14 -20 -9
-78 -53 -41 -30 -27 -33 -25 -27 -22 -12 -11 -8 -4 0 -14 -23 -30 -37 -38 -38 -9 -25 -76 -91 -89 -42 -36 -77 -65 -74 -123 -57 -69 -63 -76 -59 -75 -116 -91 -79 -60 -34 -29
-22 -16 -69 -52 -61 -78 -58 -60 -86 -34 -45 -44 -65 -85 -76 -70 -50 -61 -61 -47 -42 -22 -26 -44 -77 -55 -15 -38 -9 -42 -33 -29 -62 -130 -102 -78 -32 -94 -73 -45 -91 -77 -37
-3 -2 -247 -206 -217 -14 -98 -234 -33 -15 -3 -148 -158 -128 -132 -138 -145 -132 -106 -84 -55 -28 -10 -34 -58 -37 -7 -5 -5 -33 -41 -51 -32 -33 -48 -27 -77 -56 -39 -106 -40 -51 -32
-21 0 0 0 0 0 -50 -1 0 0 0 0 0 0 0 0 0 0 0 0 -161 -132 -59 -8 -1 -9 -6 -4 -5 -11 -23 -34 -55 -31 -74 -111 -74 -89 -47 -77 -70 -18 -48
0 0 0 0 0 0 0 0 0 0 0 -11 0 -7 -4 0 0 0 0 0 -1 0 0 -101 -125 -9 -2 -2 -1 -1 -1 -3 -5 -23 -4 -42 -46 -44 -18 -26 -33 -35 -22
0 0 0 0 0 0 0 0 0 0 0 0 0 0 -4 -12 -15 0 0 0 0 0 0 0 0 0 0 -63 -19 -12 -35 -39 -20 -24 -4 -2 -11 0 -2 -6 -10 -15 -31
0 0 0 0 0 0 0 -9 0 0 0 0 0 0 0 0 0 0 0 0 0 0 0 -1 0 0 -1 0 0 0 -9 -85 -3 -1 0 0 -2 -6 -26 -75 -31 -7 -27
0 0 0 0 0 0 0 0 0 0 0 0 0 0 0 0 0 0 -14 0 0 0 0 0 0 0 0 0 -5 0 0 0 -6 0 0 0 0 0 0 0 0 0 0
0 0 0 0 0 0 0 0 0 0 0 0 0 0 0 0 0 0 0 0 0 0 -9 -14 -11 -16 -19 -22 -13 -14 -8 -9 0 -22 -10 -5 -26 -28 -36 -20 0 -6 0
0 0 0 0 0 0 0 -12 -27 0 0 0 0 0 0 0 0 0 0 0 0 -6 -19 -26 -20 -25 -37 -39 -43 -11 -9 0 -21 -11 -3 -22 -15 -2 -35 -44 -66 -2 -5
0 0 0 0 0 0 0 0 0 0 0 0 0 0 0 0 0 0 0 0 0 0 -11 -32 -60 -28 -54 -77 -72 -84 -63 -67 -46 -39 -38 -33 -27 -18 0 -9 -41 -25 -16
Wind_Speed
nan 17 nan nan nan nan nan 5 nan nan nan nan nan nan 6 9 14 17 14 29 27 24 23 26 28 28 27 25 22 26 22 19 18 16 16 15 14 12 12 13 14 14 14
27 21 15 9 10 6 nan nan nan nan nan nan nan 4 5 5 6 14 14 16 27 27 29 28 29 30 32 32 31 28 25 23 20 18 14 11 12 13 15 15 16 14 17
28 22 18 17 10 nan 9 8 5 3 3 4 3 0 3 4 9 16 14 17 18 25 27 26 23 28 27 29 29 26 25 28 22 24 12 9 8 12 15 16 18 16 15
nan nan 17 14 9 8 7 8 3 2 2 3 3 4 4 5 8 14 9 12 14 14 16 22 17 19 29 33 34 32 27 30 30 20 6 13 15 10 10 12 14 17 15
nan nan 15 11 7 8 3 3 2 5 4 3 2 5 7 8 11 17 14 20 13 16 14 23 29 21 12 20 21 28 28 25 27 22 5 12 18 25 16 10 9 12 14
nan 18 16 12 6 7 4 6 6 5 8 7 5 5 6 12 17 24 22 22 26 13 18 27 26 26 26 26 28 22 25 29 23 19 15 14 13 19 21 17 10 8 12
18 17 15 14 11 8 1 2 4 5 9 9 10 9 9 14 25 23 22 22 20 25 21 23 23 24 20 26 25 14 30 28 21 23 19 17 13 15 24 23 16 10 9
nan 12 10 8 8 4 2 3 7 9 7 11 13 10 nan 16 nan nan 23 27 23 28 27 29 28 28 26 26 25 28 27 9 24 21 18 19 16 13 19 17 11 10 10
14 10 6 5 5 3 3 4 9 8 9 13 17 16 16 19 nan nan nan nan 24 31 29 29 32 32 32 28 27 25 25 22 8 20 18 18 17 14 10 17 17 12 10
15 11 7 2 0 4 3 6 8 13 16 13 17 22 22 25 25 25 nan nan nan nan 29 27 29 32 35 30 32 37 36 19 12 19 17 15 15 16 12 12 16 14 11
10 10 11 5 2 4 3 7 10 9 14 17 21 20 20 19 23 23 nan nan nan nan 26 29 31 33 33 31 31 35 41 27 14 19 18 18 15 16 12 11 11 15 15
4 5 11 9 4 5 6 5 7 12 12 14 16 18 21 22 20 21 19 nan nan nan nan 29 24 24 29 27 29 33 30 24 15 13 19 20 20 21 20 13 10 11 12
2 6 8 4 4 15 11 5 7 8 11 13 14 15 17 17 19 18 18 17 nan nan nan 21 17 17 17 23 26 26 27 28 26 26 27 24 22 21 19 16 14 12 11
8 7 16 17 14 24 23 18 8 10 12 11 10 13 14 14 13 15 17 18 nan nan 14 nan nan 15 18 21 17 17 20 24 25 28 27 24 24 24 21 14 14 15 12
8 14 16 16 12 12 10 9 11 12 11 12 10 11 13 12 12 12 14 18 22 nan nan 17 nan 15 16 18 17 20 16 20 23 26 30 26 26 22 25 24 23 24 18
6 6 8 11 11 11 12 13 12 13 13 12 12 14 12 12 13 15 15 16 17 20 22 24 23 19 19 17 26 27 25 26 25 28 28 29 26 28 29 26 28 28 25
9 11 11 11 12 14 15 19 19 18 18 17 16 14 12 12 13 14 14 15 16 17 20 21 23 21 21 24 28 36 34 32 31 32 30 25 27 29 34 25 24 20 24
7 11 nan nan nan nan nan nan nan nan nan nan nan nan nan nan nan 15 16 16 19 19 20 20 26 28 31 30 37 39 39 41 38 31 35 29 33 30 32 32 32 32 29
nan nan nan nan nan nan nan nan nan nan nan nan nan nan nan nan nan nan nan nan nan nan 23 27 31 34 37 35 33 37 31 32 35 39 nan 44 nan 41 36 36 36 38 32
nan nan nan nan nan nan nan nan nan nan nan nan nan nan nan nan nan nan nan nan nan nan nan nan nan 35 36 32 34 32 31 31 31 nan nan nan nan nan nan nan nan nan nan
nan nan nan nan nan nan nan nan nan nan nan nan nan nan nan nan nan nan nan nan nan nan nan nan nan nan nan nan nan 32 34 nan 32 nan nan nan nan nan nan nan nan nan nan
nan nan nan nan nan nan nan nan nan nan nan nan nan nan nan nan nan nan nan nan nan nan nan nan nan nan nan nan nan nan nan nan nan nan nan nan nan nan nan nan nan nan nan
nan nan nan nan nan nan nan nan nan nan nan nan nan nan nan nan nan nan nan nan nan nan nan nan nan nan nan nan nan nan nan nan nan nan nan nan nan nan nan nan nan nan nan
nan nan nan nan nan nan nan nan nan nan nan nan nan nan nan nan nan nan nan nan nan nan nan nan nan nan nan nan nan nan nan nan nan nan nan nan nan nan nan nan nan nan nan
nan nan nan nan nan nan nan nan nan nan nan nan nan nan nan nan nan nan nan nan nan nan nan nan nan nan nan nan nan nan nan nan nan nan nan nan nan nan nan nan nan nan nan
nan nan nan nan nan nan nan nan nan nan nan nan nan nan nan nan nan nan nan nan nan nan nan nan nan nan nan nan nan nan nan nan nan nan nan nan nan nan nan 44 nan nan nan
Wind_Direction
nan 172 nan nan nan nan nan 114 nan nan nan nan nan nan 50 37 6 7 4 22 16 19 22 22 14 12 11 14 13 17 1 356 345 344 347 346 343 331 336 339 343 346 326
201 177 173 185 185 170 nan nan nan nan nan nan nan 53 32 354 17 344 341 354 13 12 10 13 16 8 7 13 13 14 14 351 338 346 353 339 335 328 326 328 330 336 343
180 170 165 190 181 nan 199 199 165 178 206 184 131 15 319 345 323 308 326 337 355 13 14 8 5 8 12 7 8 5 3 8 342 335 330 3 349 331 335 327 325 328 336
nan nan 177 186 189 203 207 219 163 192 343 1 333 313 319 338 312 305 308 308 300 327 7 8 343 24 3 3 359 359 8 9 3 3 21 347 351 337 331 324 325 320 326
nan nan 182 175 168 213 217 293 327 344 320 312 294 299 330 320 315 311 331 300 286 318 315 325 348 2 12 9 5 354 1 18 14 28 355 344 317 332 316 308 318 317 319
nan 182 184 192 182 195 218 282 271 294 315 309 304 295 322 326 306 308 314 314 323 321 325 327 339 336 6 10 3 0 7 11 16 6 4 356 356 339 323 310 318 326 331
164 168 180 180 207 196 274 294 303 307 282 297 280 280 299 296 304 312 302 311 329 319 317 318 316 327 338 356 347 359 27 1 15 7 6 354 337 339 340 316 297 319 332
nan 147 144 178 205 225 249 301 312 284 314 283 303 294 nan 279 nan nan 309 319 315 313 320 327 327 330 325 314 331 354 357 343 22 14 7 351 355 358 353 347 329 325 339
112 96 132 164 149 207 267 306 309 308 291 294 299 307 287 295 nan nan nan nan 306 309 314 324 329 323 313 314 329 340 343 302 46 32 4 6 352 358 357 346 327 324 341
92 97 91 82 122 238 257 274 290 307 302 303 299 311 311 310 298 296 nan nan nan nan 312 309 311 313 312 313 315 313 285 283 109 27 3 2 352 350 345 338 321 314 324
137 160 160 159 248 288 312 316 313 314 311 317 319 315 316 310 306 302 nan nan nan nan 311 317 311 299 299 302 308 307 325 343 356 1 350 353 343 340 350 341 320 311 316
209 209 191 168 70 313 299 311 319 318 311 319 318 321 321 312 307 308 308 nan nan nan nan 307 310 312 297 294 305 320 322 326 304 318 329 332 319 321 338 325 323 313 315
195 228 229 183 213 233 206 99 2 340 329 330 323 321 326 324 319 324 317 314 nan nan nan 306 308 316 307 309 312 312 315 318 315 315 317 307 311 316 321 297 302 300 304
89 337 340 296 25 12 28 47 342 326 311 330 310 322 329 326 324 327 334 328 nan nan 329 nan nan 348 339 323 332 335 307 321 318 306 303 309 308 307 302 294 287 277 281
336 343 354 14 17 341 343 341 333 306 313 327 328 322 324 325 321 319 317 323 325 nan nan 331 nan 326 316 323 334 306 306 308 312 312 307 304 301 308 297 274 267 271 264
317 319 312 310 321 320 323 319 321 325 322 323 320 316 321 332 325 324 323 319 320 323 323 321 317 317 309 314 301 299 297 289 297 297 302 306 306 297 302 290 284 274 261
329 322 318 318 309 309 308 310 314 303 306 306 306 312 313 314 321 319 318 317 311 307 313 315 312 309 305 306 303 299 298 293 292 283 288 285 264 271 270 270 260 287 279
350 340 nan nan nan nan nan nan nan nan nan nan nan nan nan nan nan 309 308 297 303 315 317 315 314 309 307 304 293 290 291 290 285 268 269 272 276 268 263 264 260 256 262
nan nan nan nan nan nan nan nan nan nan nan nan nan nan nan nan nan nan nan nan nan nan 312 312 309 309 306 299 292 289 287 285 288 273 nan 271 nan 265 264 260 263 252 255
nan nan nan nan nan nan nan nan nan nan nan nan nan nan nan nan nan nan nan nan nan nan nan nan nan 307 311 311 305 301 296 296 288 nan nan nan nan nan nan nan nan nan nan
nan nan nan nan nan nan nan nan nan nan nan nan nan nan nan nan nan nan nan nan nan nan nan nan nan nan nan nan nan 305 301 nan 301 nan nan nan nan nan nan nan nan nan nan
nan nan nan nan nan nan nan nan nan nan nan nan nan nan nan nan nan nan nan nan nan nan nan nan nan nan nan nan nan nan nan nan nan nan nan nan nan nan nan nan nan nan nan
nan nan nan nan nan nan nan nan nan nan nan nan nan nan nan nan nan nan nan nan nan nan nan nan nan nan nan nan nan nan nan nan nan nan nan nan nan nan nan nan nan nan nan
nan nan nan nan nan nan nan nan nan nan nan nan nan nan nan nan nan nan nan nan nan nan nan nan nan nan nan nan nan nan nan nan nan nan nan nan nan nan nan nan nan nan nan
nan nan nan nan nan nan nan nan nan nan nan nan nan nan nan nan nan nan nan nan nan nan nan nan nan nan nan nan nan nan nan nan nan nan nan nan nan nan nan nan nan nan nan
nan nan nan nan nan nan nan nan nan nan nan nan nan nan nan nan nan nan nan nan nan nan nan nan nan nan nan nan nan nan nan nan nan nan nan nan nan nan nan 274 nan nan nan